THY731 VCBI-VRMM

Flight info

Callsign THY731
Flight time 1h 4m
Altitude 38000
Route LALUM DCT HOKEY HOKEY1B
Aircraft B77W/H-SDE1E2E3FGHIJ2J3J4J5M1RWXY/LB1D1

Departure

Time 2026-05-04 08:42
Airport Bandaranaike International Colombo Airport (VCBI)

Arrival

Time 2026-05-04 09:46
Airport Velana International Airport (VRMM)
Time Latitude Longitude Altitude Speed Heading
2026-05-04 08:04 7.17531 79.88508 58 ft 0 kts 38°
2026-05-04 08:33 7.17493 79.88484 58 ft 2 kts 358°
2026-05-04 08:33 7.17478 79.88488 58 ft 2 kts 330°
2026-05-04 08:35 7.17466 79.88499 59 ft 0 kts 307°
2026-05-04 08:37 7.17549 79.88362 51 ft 18 kts 304°
2026-05-04 08:37 7.17639 79.88268 47 ft 18 kts 353°
2026-05-04 08:37 7.17748 79.88322 49 ft 16 kts 37°
2026-05-04 08:38 7.17834 79.88388 51 ft 15 kts 37°
2026-05-04 08:38 7.17927 79.88458 51 ft 18 kts 37°
2026-05-04 08:38 7.18040 79.88544 50 ft 21 kts 38°
2026-05-04 08:40 7.19040 79.89316 49 ft 23 kts 38°
2026-05-04 08:40 7.19169 79.89407 50 ft 21 kts 21°
2026-05-04 08:40 7.19271 79.89357 49 ft 16 kts 310°
2026-05-04 08:41 7.19289 79.89281 49 ft 9 kts 238°
2026-05-04 08:41 7.19264 79.89257 49 ft 0 kts 219°
2026-05-04 08:41 7.19236 79.89233 49 ft 25 kts 219°
2026-05-04 08:41 7.18872 79.88957 49 ft 103 kts 217°
2026-05-04 08:42 7.18128 79.88391 136 ft 157 kts 218°
2026-05-04 08:42 7.17200 79.87692 710 ft 171 kts 218°
2026-05-04 08:42 7.16301 79.86993 1658 ft 163 kts 219°
2026-05-04 08:42 7.15356 79.86258 2107 ft 178 kts 218°
2026-05-04 08:43 7.14329 79.85463 2565 ft 194 kts 218°
2026-05-04 08:43 7.13200 79.84592 3062 ft 210 kts 218°
2026-05-04 08:43 7.12008 79.83676 3600 ft 224 kts 218°
2026-05-04 08:43 7.10715 79.82677 4180 ft 239 kts 219°
2026-05-04 08:44 7.09347 79.81624 4760 ft 254 kts 219°
2026-05-04 08:44 7.07913 79.80521 5438 ft 264 kts 219°
2026-05-04 08:46 6.97091 79.72212 10748 ft 303 kts 218°
2026-05-04 08:46 6.95362 79.70886 11388 ft 321 kts 217°
2026-05-04 08:46 6.93518 79.69473 11763 ft 340 kts 217°
2026-05-04 08:46 6.91582 79.67990 12103 ft 358 kts 217°
2026-05-04 08:47 6.89520 79.66409 12502 ft 377 kts 218°
2026-05-04 08:47 6.88014 79.64989 12796 ft 391 kts 229°
2026-05-04 08:47 6.86331 79.62803 13335 ft 403 kts 234°
2026-05-04 08:47 6.84669 79.60506 14264 ft 409 kts 234°
2026-05-04 08:48 6.82988 79.58179 15248 ft 415 kts 234°
2026-05-04 08:48 6.81285 79.55821 16259 ft 420 kts 234°
2026-05-04 08:48 6.79552 79.53424 17174 ft 427 kts 234°
2026-05-04 08:48 6.77795 79.50992 17957 ft 434 kts 234°
2026-05-04 08:49 6.75992 79.48497 18633 ft 441 kts 234°
2026-05-04 08:50 6.64766 79.32976 22525 ft 471 kts 233°
2026-05-04 08:50 6.62801 79.30262 23122 ft 476 kts 233°
2026-05-04 08:51 6.60850 79.27567 23707 ft 480 kts 233°
2026-05-04 08:51 6.58878 79.24841 24282 ft 484 kts 233°
2026-05-04 08:51 6.56861 79.22056 24914 ft 488 kts 233°
2026-05-04 08:51 6.54879 79.19319 25531 ft 491 kts 233°
2026-05-04 08:52 6.52854 79.16522 26149 ft 494 kts 233°
2026-05-04 08:52 6.50810 79.13701 26761 ft 498 kts 233°
2026-05-04 08:52 6.48739 79.10842 27382 ft 501 kts 233°
2026-05-04 08:52 6.46683 79.08005 28025 ft 504 kts 233°
2026-05-04 08:53 6.44616 79.05153 28653 ft 507 kts 233°
2026-05-04 08:54 6.30216 78.85293 34368 ft 492 kts 233°
2026-05-04 08:55 6.28203 78.82520 35211 ft 490 kts 232°
2026-05-04 08:55 6.26200 78.79760 36000 ft 488 kts 232°
2026-05-04 08:55 6.24175 78.76971 36705 ft 487 kts 232°
2026-05-04 08:55 6.22173 78.74213 37365 ft 487 kts 232°
2026-05-04 08:57 6.08180 78.54955 37831 ft 478 kts 232°
2026-05-04 09:01 5.80256 78.16584 37862 ft 485 kts 232°
2026-05-04 09:01 5.76232 78.11062 37863 ft 486 kts 232°
2026-05-04 09:02 5.72260 78.05612 37863 ft 486 kts 232°
2026-05-04 09:02 5.68488 77.99908 37863 ft 488 kts 242°
2026-05-04 09:03 5.66170 77.93468 37865 ft 491 kts 251°
2026-05-04 09:03 5.64171 77.86878 37865 ft 491 kts 251°
2026-05-04 09:04 5.62183 77.80329 37865 ft 491 kts 251°
2026-05-04 09:04 5.60182 77.73746 37864 ft 491 kts 252°
2026-05-04 09:05 5.58194 77.67213 37864 ft 491 kts 252°
2026-05-04 09:05 5.56187 77.60621 37867 ft 492 kts 252°
2026-05-04 09:06 5.54192 77.54072 37868 ft 492 kts 252°
2026-05-04 09:08 5.46176 77.27789 37868 ft 493 kts 252°
2026-05-04 09:08 5.44164 77.21203 37869 ft 493 kts 252°
2026-05-04 09:09 5.42147 77.14599 37870 ft 494 kts 252°
2026-05-04 09:09 5.40124 77.07978 37871 ft 493 kts 252°
2026-05-04 09:10 5.38115 77.01408 37872 ft 493 kts 252°
2026-05-04 09:10 5.36087 76.94776 37873 ft 493 kts 252°
2026-05-04 09:11 5.34076 76.88206 37874 ft 493 kts 252°
2026-05-04 09:11 5.32053 76.81596 37878 ft 493 kts 252°
2026-05-04 09:12 5.30035 76.75005 37887 ft 493 kts 252°
2026-05-04 09:14 5.21953 76.48644 37897 ft 494 kts 252°
2026-05-04 09:14 5.19932 76.42059 37898 ft 494 kts 252°
2026-05-04 09:15 5.17894 76.35419 37900 ft 494 kts 252°
2026-05-04 09:15 5.15856 76.28781 37898 ft 494 kts 251°
2026-05-04 09:17 5.06719 75.99046 37904 ft 496 kts 251°
2026-05-04 09:18 5.04677 75.92400 37907 ft 495 kts 251°
2026-05-04 09:18 5.02635 75.85761 37909 ft 495 kts 251°
2026-05-04 09:19 5.00598 75.79138 37909 ft 495 kts 251°
2026-05-04 09:19 4.98567 75.72537 37910 ft 495 kts 251°
2026-05-04 09:20 4.96529 75.65917 37912 ft 495 kts 251°
2026-05-04 09:20 4.94504 75.59340 37913 ft 495 kts 251°
2026-05-04 09:21 4.92464 75.52718 37915 ft 495 kts 251°
2026-05-04 09:21 4.90431 75.46123 37917 ft 496 kts 251°
2026-05-04 09:22 4.88395 75.39517 37920 ft 496 kts 251°
2026-05-04 09:22 4.86355 75.32912 37919 ft 496 kts 251°
2026-05-04 09:23 4.84403 75.26592 37499 ft 490 kts 251°
2026-05-04 09:23 4.83389 75.23312 36616 ft 498 kts 251°
2026-05-04 09:23 4.82356 75.19972 35692 ft 505 kts 251°
2026-05-04 09:25 4.75150 74.96680 29523 ft 476 kts 252°
2026-05-04 09:25 4.74186 74.93568 28994 ft 467 kts 252°
2026-05-04 09:26 4.73234 74.90492 28448 ft 459 kts 253°
2026-05-04 09:26 4.72271 74.87384 27985 ft 471 kts 253°
2026-05-04 09:26 4.71300 74.84251 27494 ft 474 kts 253°
2026-05-04 09:26 4.70327 74.81111 26933 ft 471 kts 253°
2026-05-04 09:27 4.69348 74.77949 26339 ft 467 kts 253°
2026-05-04 09:27 4.68401 74.74894 25727 ft 463 kts 253°
2026-05-04 09:27 4.67443 74.71804 25097 ft 459 kts 253°
2026-05-04 09:27 4.66506 74.68783 24495 ft 455 kts 253°
2026-05-04 09:28 4.65568 74.65758 23888 ft 450 kts 253°
2026-05-04 09:28 4.64647 74.62790 23278 ft 446 kts 253°
2026-05-04 09:28 4.63725 74.59815 22671 ft 441 kts 253°
2026-05-04 09:28 4.62812 74.56873 22064 ft 436 kts 252°
2026-05-04 09:29 4.61923 74.54008 21473 ft 432 kts 252°
2026-05-04 09:29 4.61032 74.51136 20897 ft 428 kts 252°
2026-05-04 09:29 4.60151 74.48292 20313 ft 424 kts 252°
2026-05-04 09:29 4.59286 74.45506 19725 ft 421 kts 252°
2026-05-04 09:30 4.58416 74.42705 19124 ft 418 kts 252°
2026-05-04 09:30 4.57561 74.39951 18527 ft 415 kts 252°
2026-05-04 09:30 4.56699 74.37178 17923 ft 412 kts 252°
2026-05-04 09:30 4.55857 74.34474 17328 ft 409 kts 252°
2026-05-04 09:31 4.55018 74.31768 16725 ft 406 kts 252°
2026-05-04 09:31 4.54178 74.29064 16120 ft 403 kts 252°
2026-05-04 09:31 4.53442 74.26360 15518 ft 399 kts 256°
2026-05-04 09:31 4.52834 74.23693 14924 ft 396 kts 257°
2026-05-04 09:32 4.52217 74.20990 14320 ft 393 kts 257°
2026-05-04 09:32 4.51608 74.18345 13721 ft 390 kts 257°
2026-05-04 09:34 4.47520 74.00862 10617 ft 305 kts 257°
2026-05-04 09:34 4.47049 73.98842 10565 ft 285 kts 256°
2026-05-04 09:34 4.46596 73.96940 10418 ft 277 kts 257°
2026-05-04 09:34 4.46160 73.95105 10309 ft 267 kts 257°
2026-05-04 09:35 4.45721 73.93249 10236 ft 279 kts 257°
2026-05-04 09:35 4.45261 73.91344 10121 ft 282 kts 257°
2026-05-04 09:35 4.44804 73.89404 9847 ft 285 kts 257°
2026-05-04 09:35 4.44512 73.87457 9459 ft 285 kts 268°
2026-05-04 09:37 4.44495 73.73686 6978 ft 276 kts 270°
2026-05-04 09:37 4.44488 73.71791 6725 ft 269 kts 270°
2026-05-04 09:38 4.44483 73.69909 6398 ft 269 kts 270°
2026-05-04 09:38 4.44480 73.68036 6069 ft 269 kts 270°
2026-05-04 09:38 4.44478 73.66170 5746 ft 268 kts 270°
2026-05-04 09:38 4.44473 73.64296 5367 ft 265 kts 270°
2026-05-04 09:39 4.44473 73.62495 5190 ft 255 kts 270°
2026-05-04 09:39 4.44474 73.60718 4953 ft 252 kts 270°
2026-05-04 09:39 4.44475 73.58951 4711 ft 249 kts 270°
2026-05-04 09:39 4.44475 73.57255 4465 ft 240 kts 270°
2026-05-04 09:40 4.44381 73.55584 4223 ft 239 kts 256°
2026-05-04 09:40 4.43590 73.54150 3893 ft 238 kts 225°
2026-05-04 09:40 4.42232 73.53252 3642 ft 235 kts 200°
2026-05-04 09:40 4.40585 73.53043 3371 ft 236 kts 183°
2026-05-04 09:41 4.38937 73.53046 3115 ft 235 kts 182°
2026-05-04 09:42 4.29885 73.53097 1675 ft 160 kts 184°
2026-05-04 09:43 4.28763 73.53101 1494 ft 159 kts 184°
2026-05-04 09:43 4.27669 73.53097 1311 ft 156 kts 185°
2026-05-04 09:43 4.26566 73.53101 1076 ft 157 kts 184°
2026-05-04 09:43 4.25507 73.53101 874 ft 152 kts 186°
2026-05-04 09:44 4.24440 73.53101 684 ft 154 kts 184°
2026-05-04 09:44 4.23356 73.53108 551 ft 151 kts 184°
2026-05-04 09:44 4.22305 73.53111 278 ft 150 kts 183°
2026-05-04 09:46 4.18514 73.52936 22 ft 15 kts 227°
2026-05-04 09:46 4.18492 73.52876 23 ft 8 kts 281°
2026-05-04 09:46 4.18500 73.52821 23 ft 8 kts 271°
2026-05-04 09:47 4.18500 73.52790 23 ft 0 kts 270°